Date,TemperatureHighF,TemperatureAvgF,TemperatureLowF,DewpointHighF,DewpointAvgF,DewpointLowF,HumidityHigh,HumidityAvg,HumidityLow,PressureMaxIn,PressureMinIn,WindSpeedMaxMPH,WindSpeedAvgMPH,GustSpeedMaxMPH,PrecipitationSumIn
2013-1-1,49.6,47.2,42.4,49.3,44.6,35.2,99,91,62,30.11,29.87,2,0,0,0.70
2013-1-2,57.4,49.9,42.5,50.2,45.9,38.6,99,87,68,30.08,29.84,5,0,0,0.08
2013-1-3,48.8,41.4,30.2,40.3,37.4,28.8,96,86,68,30.26,30.04,6,0,0,0.01
2013-1-4,55.2,39.5,27.8,35.8,28.3,22.6,98,69,30,30.34,30.22,7,0,0,0.01
2013-1-5,51.5,37.9,23.7,40.9,28.5,22.0,94,72,37,30.36,30.22,6,0,0,0.01
2013-1-6,53.1,45.0,37.4,42.3,38.4,33.8,93,78,61,30.24,30.06,8,0,0,0.01
2013-1-7,55.8,41.3,28.8,36.5,32.4,27.4,96,74,40,30.36,30.19,5,0,0,0.00
2013-1-8,52.6,43.3,29.6,42.3,36.9,27.8,95,79,65,30.39,30.28,2,0,0,0.00
2013-1-9,65.9,55.8,49.5,52.8,47.8,42.0,92,75,61,30.40,30.30,2,0,0,0.00
2013-1-10,72.3,60.8,50.5,59.0,54.6,48.4,95,81,60,30.37,30.21,7,0,0,0.02
2013-1-11,71.0,63.7,59.7,64.5,62.1,58.5,98,95,78,30.21,30.05,9,1,0,0.05
2013-1-12,75.0,62.1,54.5,64.5,58.2,53.1,99,88,59,30.11,30.00,8,0,0,0.01
2013-1-13,73.7,62.5,51.8,64.1,59.2,51.0,100,90,69,30.08,29.96,7,0,0,0.00
2013-1-14,74.4,66.6,60.5,66.5,62.7,58.7,98,88,70,30.04,29.96,12,0,12,0.05
2013-1-15,70.5,62.5,56.7,62.7,59.6,55.9,98,91,73,30.04,29.91,9,0,13,0.29
2013-1-16,63.1,58.9,54.6,62.6,58.4,54.0,99,98,96,29.94,29.85,4,0,0,0.69
2013-1-17,59.7,49.4,36.0,59.4,48.5,35.5,100,97,89,30.16,29.68,14,1,14,0.95
2013-1-18,54.2,39.6,30.2,39.4,32.7,27.4,99,80,36,30.46,30.17,4,0,0,0.00
2013-1-19,56.7,39.5,25.8,35.9,30.5,24.8,98,75,35,30.44,30.18,5,0,0,0.01
2013-1-20,65.6,45.2,28.3,40.3,34.3,27.4,98,70,37,30.18,30.02,9,0,0,0.00
2013-1-21,61.1,43.9,28.1,40.3,30.2,20.4,98,64,36,30.09,29.98,12,1,14,0.00
2013-1-22,49.2,38.7,30.4,20.5,16.9,13.4,60,42,27,30.25,30.08,8,1,0,0.00
2013-1-23,53.2,37.9,23.7,38.0,24.4,15.5,84,60,38,30.34,30.11,10,0,12,0.00
2013-1-24,59.0,48.8,34.6,41.5,31.1,14.9,81,54,24,30.36,30.06,10,1,0,0.00
2013-1-25,36.1,32.3,28.9,25.2,17.7,11.2,69,55,41,30.41,30.10,4,0,0,0.00
2013-1-26,62.3,42.9,32.4,41.4,30.7,22.9,94,67,23,30.25,30.07,6,0,0,0.00
2013-1-27,51.6,41.0,29.6,33.6,31.3,26.2,92,70,49,30.47,30.24,6,0,0,0.00
2013-1-28,53.8,45.5,38.9,45.4,37.5,31.6,94,74,62,30.40,30.24,4,0,0,0.00
2013-1-29,74.2,55.1,36.7,61.8,50.2,35.4,97,85,62,30.24,29.94,11,0,0,0.00
2013-1-30,71.0,62.8,45.6,64.8,58.9,41.9,96,87,77,29.94,29.43,23,2,23,1.25
2013-1-31,50.3,41.7,34.7,42.1,28.2,23.0,89,60,37,30.11,29.67,18,2,29,0.00
2013-2-1,46.6,38.2,27.6,31.3,17.6,3.0,84,47,18,30.33,30.05,10,1,13,0.00
2013-2-2,53.8,36.5,20.4,40.2,21.0,9.7,97,61,20,30.33,30.07,11,0,19,0.13
2013-2-3,58.2,44.5,33.5,39.9,32.9,26.8,97,69,32,30.07,29.90,15,1,23,0.01
2013-2-4,50.4,40.1,29.4,33.0,28.7,25.3,88,66,40,30.09,29.98,5,0,0,0.00
2013-2-5,61.5,45.3,28.2,47.7,38.3,26.7,95,78,54,30.00,29.92,8,0,0,0.00
2013-2-6,70.3,49.6,33.3,47.5,35.7,30.0,99,67,24,30.13,29.98,9,0,0,0.00
2013-2-7,46.4,42.9,36.4,43.4,39.4,33.5,97,88,64,30.11,29.88,6,0,0,0.78
2013-2-8,58.3,49.2,42.8,50.2,43.9,34.1,97,83,63,30.08,29.88,7,0,0,0.00
2013-2-9,62.2,43.9,28.0,36.7,30.9,24.4,97,66,25,30.26,30.06,6,0,0,0.00
2013-2-10,62.7,47.9,33.7,51.7,40.5,30.5,98,78,52,30.32,30.03,9,1,12,0.78
2013-2-11,61.4,55.5,49.2,60.3,54.7,48.7,100,97,92,30.08,29.97,7,0,13,0.40
2013-2-12,57.6,50.1,43.9,49.9,45.9,37.8,98,87,48,30.05,29.81,3,0,0,0.25
2013-2-13,54.0,46.2,39.5,50.2,43.6,35.8,99,91,74,29.88,29.68,12,0,15,0.03
2013-2-14,55.6,41.4,30.9,37.7,34.5,29.8,97,78,45,30.05,29.87,6,0,0,0.00
2013-2-15,65.0,46.2,29.8,42.6,34.2,28.8,98,69,30,30.07,29.92,8,0,0,0.00
2013-2-16,47.6,41.1,31.4,36.9,24.8,11.5,80,54,29,30.07,29.84,16,1,18,0.00
2013-2-17,47.7,34.0,22.4,20.9,14.6,9.1,76,48,22,30.26,30.07,9,1,21,0.00
2013-2-18,57.7,39.5,21.9,29.6,23.4,18.8,92,58,27,30.36,30.14,8,1,0,0.00
2013-2-19,58.4,45.2,38.2,47.2,35.0,21.1,97,71,36,30.14,29.93,12,0,15,0.30
2013-2-20,56.4,42.1,25.3,24.8,19.0,11.3,88,44,18,30.14,30.03,9,0,13,0.00
2013-2-21,63.8,47.6,30.1,32.4,24.9,18.8,80,44,22,30.16,29.95,6,0,0,0.00
2013-2-22,53.3,41.4,39.2,41.6,39.5,31.4,98,94,44,30.15,30.01,6,0,0,1.10
2013-2-23,46.1,42.8,39.5,45.4,42.2,39.0,99,98,97,30.04,29.80,4,0,0,0.65
2013-2-24,68.5,50.1,36.8,48.8,39.2,31.7,100,73,26,29.97,29.84,9,0,12,0.00
2013-2-25,48.5,43.4,37.3,37.1,34.1,29.8,95,71,52,30.02,29.88,11,1,12,0.02
2013-2-26,46.1,39.7,35.6,44.5,38.7,34.7,98,96,86,29.89,29.55,7,0,0,1.19
2013-2-27,60.7,49.2,42.0,38.7,36.0,33.5,85,62,40,29.84,29.71,12,1,15,0.00
2013-2-28,49.4,43.3,35.3,37.0,31.5,26.5,82,63,51,29.92,29.75,12,1,16,0.00
2013-3-1,50.5,39.5,28.1,32.4,28.9,24.8,90,67,48,29.94,29.87,9,1,14,0.00
2013-3-2,48.1,39.3,33.3,33.2,29.5,25.3,88,69,45,29.94,29.84,13,1,15,0.00
2013-3-3,45.8,36.0,26.7,26.2,21.0,18.8,76,56,35,30.02,29.91,11,1,14,0.00
2013-3-4,61.5,43.3,26.6,33.3,24.0,16.9,79,50,26,30.15,29.99,8,0,0,0.00
2013-3-5,69.8,51.7,35.4,56.6,42.6,26.9,93,72,54,30.04,29.60,21,2,21,0.06
2013-3-6,45.2,38.8,33.1,28.7,26.1,20.5,76,60,48,30.11,29.79,20,2,22,0.00
2013-3-7,63.1,43.6,25.3,34.5,29.4,23.3,94,62,30,30.22,30.09,9,0,0,0.00
2013-3-8,63.9,45.5,29.7,32.4,28.7,24.2,89,57,24,30.27,30.14,4,0,0,0.00
2013-3-9,65.5,46.8,30.5,38.0,32.0,27.4,90,61,28,30.30,30.16,7,0,0,0.00
2013-3-10,69.3,55.3,41.1,49.1,40.6,35.5,86,61,32,30.20,30.05,8,1,0,0.00
2013-3-11,66.2,57.7,51.5,57.0,52.3,47.5,98,83,65,30.06,29.74,12,1,18,0.58
2013-3-12,65.0,53.7,42.4,57.2,42.1,33.3,100,69,34,30.01,29.70,9,1,14,0.16
2013-3-13,58.5,46.7,31.7,34.6,28.3,20.8,94,53,27,30.17,30.01,11,1,20,0.00
2013-3-14,57.9,43.2,28.5,22.5,20.1,16.4,68,42,21,30.31,30.15,7,1,0,0.00
2013-3-15,75.6,53.6,30.6,43.7,33.9,19.3,89,51,28,30.18,29.92,11,1,15,0.00
2013-3-16,79.3,64.0,48.3,44.8,41.4,36.4,79,48,22,29.94,29.78,16,1,19,0.00
2013-3-17,73.6,62.0,49.8,55.1,49.2,40.6,88,64,46,29.94,29.83,10,1,13,0.00
2013-3-18,57.7,51.0,44.2,54.1,47.7,43.1,97,89,79,29.98,29.76,9,0,13,0.31
2013-3-19,69.9,54.0,43.5,47.1,37.0,20.5,98,62,18,30.00,29.82,11,1,0,0.00
2013-3-20,60.0,48.7,37.0,35.4,25.8,17.3,84,45,21,30.07,29.82,11,0,15,0.00
2013-3-21,50.9,42.1,33.3,29.6,18.5,8.3,69,42,20,29.92,29.82,12,1,18,0.00
2013-3-22,48.4,41.1,31.6,37.1,26.0,20.3,77,56,37,30.04,29.91,4,0,0,0.00
2013-3-23,50.1,46.0,41.2,48.0,43.4,36.6,98,91,74,29.99,29.81,5,0,0,0.81
2013-3-24,47.4,46.5,44.9,46.9,45.6,43.6,98,97,92,29.82,29.49,6,0,13,1.10
2013-3-25,46.3,40.5,35.8,43.0,27.2,22.8,93,59,44,29.99,29.58,18,2,23,0.00
2013-3-26,47.4,38.2,30.5,28.4,25.9,23.9,81,62,44,30.21,29.97,11,2,15,0.00
2013-3-27,58.4,42.8,28.6,28.8,25.3,21.7,88,54,25,30.29,30.15,9,1,17,0.00
2013-3-28,65.5,46.5,27.6,33.9,26.9,19.5,91,53,22,30.29,30.13,11,1,14,0.00
2013-3-29,68.5,50.1,29.8,43.0,31.6,25.3,94,56,25,30.30,30.12,6,0,0,0.00
2013-3-30,73.9,59.8,48.5,55.8,43.1,34.8,95,56,35,30.15,29.95,8,0,0,0.13
2013-3-31,70.7,61.5,55.5,59.4,56.0,54.3,98,83,58,29.96,29.78,12,1,16,0.12
2013-4-1,75.7,63.4,55.8,58.0,48.9,34.6,99,66,24,29.94,29.77,9,1,14,0.49
2013-4-2,73.5,56.7,40.6,45.6,37.9,29.4,95,55,27,30.09,29.94,10,1,0,0.00
2013-4-3,61.6,52.9,42.2,45.3,34.1,28.3,86,52,33,30.16,30.02,6,0,0,0.04
2013-4-4,48.1,42.7,39.0,44.4,40.6,37.6,96,92,82,30.13,29.93,6,0,0,0.45
2013-4-5,66.1,48.7,36.6,47.7,42.3,35.8,98,81,47,29.99,29.89,5,0,0,0.01
2013-4-6,71.5,54.4,35.2,49.1,39.0,32.6,99,64,25,30.15,29.99,7,0,0,0.00
2013-4-7,75.4,58.1,39.1,52.9,46.3,37.5,96,68,38,30.17,30.01,10,0,0,0.00
2013-4-8,80.2,63.3,48.1,58.0,52.4,46.2,96,71,39,30.10,29.98,10,0,0,0.00
2013-4-9,83.1,66.1,50.2,61.8,55.9,48.7,97,73,42,30.13,30.01,6,0,0,0.01
2013-4-10,84.9,68.2,51.8,62.8,57.0,50.7,98,71,36,30.06,29.86,8,0,12,0.00
2013-4-11,79.8,67.0,54.2,69.6,61.7,52.5,97,84,59,29.89,29.62,11,0,18,0.20
2013-4-12,74.8,66.5,59.0,68.1,53.5,39.6,97,68,35,29.82,29.58,21,1,21,0.63
2013-4-13,81.1,61.6,41.3,47.9,41.1,33.8,95,54,19,29.95,29.82,5,0,0,0.00
2013-4-14,65.1,54.9,44.1,59.4,50.3,42.5,96,85,64,30.00,29.82,5,0,0,0.07
2013-4-15,76.4,64.9,55.1,62.9,58.4,53.7,97,81,56,30.08,29.87,4,0,0,0.00
2013-4-16,83.6,68.2,56.6,64.5,60.5,55.5,98,79,47,30.18,30.08,4,0,0,0.00
2013-4-17,85.0,70.5,59.2,65.0,62.1,58.1,97,77,49,30.15,30.01,9,0,0,0.00
2013-4-18,82.8,69.0,57.5,66.4,62.2,56.6,98,81,50,30.04,29.87,7,0,0,0.00
2013-4-19,71.3,61.3,47.0,67.7,58.8,45.4,97,92,83,29.94,29.73,10,0,12,0.74
2013-4-20,68.8,51.7,37.0,45.5,38.3,30.0,97,67,27,30.18,29.93,5,0,0,0.00
2013-4-21,70.5,53.8,38.9,45.6,41.8,37.5,96,68,35,30.30,30.18,7,0,0,0.00
2013-4-22,71.3,56.7,48.0,47.6,44.2,41.0,86,65,40,30.28,30.10,7,0,0,0.00
2013-4-23,75.7,56.9,40.1,53.3,46.0,37.7,93,70,41,30.19,30.02,4,0,0,0.00
2013-4-24,77.3,60.5,45.8,62.1,54.2,44.5,98,82,49,30.08,29.98,9,0,15,0.02
2013-4-25,79.9,63.5,50.6,61.3,47.1,31.3,96,63,20,30.21,30.02,6,0,0,0.00
2013-4-26,77.5,59.1,38.8,53.5,43.0,36.6,94,60,29,30.32,30.19,5,0,0,0.00
2013-4-27,66.5,59.4,51.8,57.5,53.6,49.1,94,81,64,30.28,30.12,5,0,0,0.02
2013-4-28,62.2,56.8,54.1,61.6,55.8,53.3,99,97,90,30.15,29.96,2,0,0,0.81
2013-4-29,72.6,60.3,55.7,64.6,58.4,54.1,100,94,71,29.99,29.87,3,0,0,0.02
2013-4-30,80.9,63.1,51.2,65.4,57.6,50.5,99,85,48,30.04,29.90,2,0,0,0.00
2013-5-1,70.3,62.9,58.6,60.1,57.8,56.3,97,84,65,30.13,30.04,6,0,0,0.00
2013-5-2,68.2,61.2,58.9,62.1,58.6,56.4,98,91,78,30.15,30.06,5,0,0,0.00
2013-5-3,63.6,59.8,57.6,60.6,57.5,54.5,97,92,86,30.08,29.94,7,0,0,0.03
2013-5-4,58.7,54.0,50.5,56.5,52.8,48.5,99,96,89,29.94,29.76,5,0,0,0.97
2013-5-5,69.4,58.3,52.7,64.0,57.0,51.6,99,96,77,29.81,29.69,5,0,0,1.17
2013-5-6,62.2,52.9,46.3,52.4,49.6,45.5,98,89,64,29.87,29.74,5,0,0,0.01
2013-5-7,70.7,57.8,48.3,55.0,52.3,47.6,99,83,55,29.91,29.80,6,0,0,0.03
2013-5-8,79.8,63.7,49.7,59.7,54.4,48.9,100,75,42,29.98,29.88,10,0,0,0.00
2013-5-9,84.9,67.6,51.0,62.8,57.1,49.9,99,74,40,30.04,29.95,6,0,0,0.00
2013-5-10,81.7,68.2,54.3,65.8,60.6,53.2,98,79,52,30.01,29.88,11,0,0,0.00
2013-5-11,78.3,67.7,57.3,66.3,62.3,56.5,99,84,64,29.92,29.78,7,0,13,0.29
2013-5-12,74.8,63.8,53.8,63.0,49.6,34.1,98,66,29,30.00,29.82,8,0,0,0.01
2013-5-13,73.8,58.1,42.3,42.1,38.4,31.1,92,53,24,30.15,29.99,8,0,0,0.00
2013-5-14,79.7,60.1,40.4,55.9,46.6,38.6,96,66,33,30.21,30.05,10,0,0,0.00
2013-5-15,89.7,71.1,55.0,61.4,57.2,53.3,96,67,32,30.08,29.92,7,0,0,0.00
2013-5-16,84.1,68.8,57.2,66.7,61.1,55.6,97,78,49,30.01,29.91,4,0,0,0.00
2013-5-17,84.1,68.7,55.0,66.7,60.7,53.6,97,78,49,30.03,29.94,4,0,0,0.00
2013-5-18,76.5,69.7,64.9,67.5,65.2,62.3,98,87,68,30.03,29.96,6,0,0,0.05
2013-5-19,72.4,68.6,65.4,69.6,66.9,64.5,98,95,87,30.04,29.94,9,0,0,0.15
2013-5-20,87.6,72.7,63.8,72.5,67.4,63.3,99,85,55,30.04,29.92,4,0,0,0.01
2013-5-21,87.8,73.7,63.1,73.9,68.2,62.2,99,85,59,29.97,29.83,4,0,0,0.11
2013-5-22,85.6,71.4,60.8,73.0,66.9,60.1,100,87,62,29.92,29.78,8,0,0,0.07
2013-5-23,85.7,73.9,65.1,69.6,63.7,56.2,98,74,44,29.88,29.80,7,0,0,0.01
2013-5-24,81.2,69.9,59.1,57.6,52.8,45.9,77,57,33,30.11,29.86,10,0,0,0.00
2013-5-25,81.0,62.4,45.0,56.3,48.9,43.4,100,66,32,30.25,30.11,5,0,0,0.00
2013-5-26,85.6,65.7,49.0,59.6,53.4,47.5,98,70,31,30.21,30.08,4,0,0,0.00
2013-5-27,86.3,69.7,53.3,65.9,59.3,51.9,98,73,42,30.17,30.04,5,0,0,0.00
2013-5-28,84.9,72.9,60.7,66.0,62.7,58.6,97,72,49,30.14,30.04,5,0,0,0.00
2013-5-29,84.1,71.6,58.2,67.5,63.1,56.7,97,76,50,30.16,30.05,4,0,0,0.00
2013-5-30,84.5,73.0,62.4,71.1,66.5,60.6,97,81,56,30.18,30.04,3,0,0,0.00
2013-5-31,86.4,75.2,64.2,69.8,66.8,62.3,96,77,51,30.14,29.99,4,0,0,0.00
2013-6-1,86.3,75.2,63.8,69.3,66.6,62.3,97,76,51,30.04,29.91,6,0,0,0.00
2013-6-2,82.8,72.8,66.3,75.0,68.8,65.0,98,88,73,29.95,29.80,5,0,15,0.66
2013-6-3,84.0,73.2,65.7,74.8,69.8,65.0,99,90,69,29.87,29.77,5,0,0,0.04
2013-6-4,89.3,76.3,65.6,74.7,69.6,64.8,98,81,57,29.93,29.84,1,0,0,0.00
2013-6-5,83.5,72.5,67.9,77.9,70.2,66.7,98,93,74,29.96,29.83,5,0,0,0.43
2013-6-6,75.6,70.2,66.8,72.8,69.1,66.2,99,96,89,29.87,29.69,6,0,0,1.35
2013-6-7,87.1,72.4,66.7,74.1,69.1,66.4,99,91,57,29.77,29.59,5,0,0,0.45
2013-6-8,84.3,73.4,65.7,72.1,68.4,65.0,99,86,61,30.00,29.76,5,0,0,0.01
2013-6-9,85.7,73.6,66.9,74.0,70.1,66.2,99,90,65,30.03,29.93,6,0,0,0.22
2013-6-10,77.5,70.4,66.3,73.4,69.5,65.0,99,97,87,29.97,29.86,6,0,0,0.92
2013-6-11,91.0,78.2,69.2,76.5,72.4,68.9,99,84,57,29.95,29.85,9,0,0,0.05
2013-6-12,96.6,81.4,67.5,79.3,73.3,66.7,99,79,47,29.95,29.85,4,0,0,0.00
2013-6-13,93.6,80.6,69.6,74.7,72.3,67.2,97,79,49,29.87,29.64,21,1,22,0.11
2013-6-14,88.7,75.4,66.6,69.9,66.0,60.1,99,76,41,29.93,29.72,3,0,0,0.01
2013-6-15,89.0,73.2,60.1,66.8,62.7,58.0,98,74,38,30.05,29.93,2,0,0,0.00
2013-6-16,88.5,73.9,60.7,72.0,67.0,59.6,99,81,52,30.08,29.94,5,0,0,0.00
2013-6-17,86.0,73.2,67.7,75.6,70.1,66.9,99,91,69,30.01,29.85,8,0,0,1.02
2013-6-18,83.2,72.2,67.3,76.9,70.5,67.0,99,95,75,29.89,29.75,8,0,15,0.88
2013-6-19,80.5,73.8,69.3,74.4,71.3,68.2,99,92,77,30.00,29.81,2,0,0,0.01
2013-6-20,84.7,73.2,64.1,71.2,67.6,63.5,99,84,58,30.11,30.00,4,0,0,0.00
2013-6-21,86.0,73.3,63.1,70.7,66.6,62.2,99,81,56,30.16,30.07,4,0,0,0.00
2013-6-22,88.5,73.3,61.2,72.2,66.5,60.3,98,82,53,30.14,30.01,2,0,0,0.00
2013-6-23,86.9,74.0,63.9,75.4,69.2,62.9,99,86,61,30.12,30.02,4,0,0,0.01
2013-6-24,89.2,76.7,66.5,76.4,70.7,65.6,99,83,59,30.14,30.01,4,0,0,0.00
2013-6-25,90.2,75.1,67.0,75.9,70.6,66.1,98,87,58,30.08,29.95,5,0,0,0.88
2013-6-26,88.8,77.3,68.9,79.1,73.2,68.4,99,88,64,30.00,29.85,6,0,13,0.29
2013-6-27,89.0,79.3,71.5,78.6,74.0,70.6,98,85,63,29.90,29.70,10,0,0,0.00
2013-6-28,94.6,80.1,69.9,76.3,72.1,68.8,98,79,49,29.75,29.55,7,0,12,0.00
2013-6-29,88.3,76.3,70.2,75.7,71.4,67.9,97,86,61,29.64,29.55,7,0,0,0.07
2013-6-30,82.0,74.1,70.0,74.8,71.3,68.9,99,91,68,29.73,29.61,2,0,0,0.10
2013-7-1,82.7,74.6,69.4,73.9,70.3,67.9,99,87,70,29.85,29.71,5,0,0,0.01
2013-7-2,86.9,76.0,70.8,73.3,70.8,68.2,97,85,59,30.02,29.84,6,0,0,0.01
2013-7-3,81.8,71.7,67.6,75.4,70.0,67.0,98,95,78,30.11,30.00,5,0,0,0.83
2013-7-4,80.3,71.4,67.8,76.3,70.4,67.2,99,97,84,30.12,30.02,7,0,14,1.54
2013-7-5,85.4,73.1,68.7,77.8,71.5,68.0,99,95,72,30.14,30.05,5,0,15,0.95
2013-7-6,85.6,75.1,68.5,75.9,72.2,67.9,99,92,66,30.10,30.00,5,0,0,0.95
2013-7-7,85.8,76.3,71.5,76.5,73.2,70.9,99,91,67,30.09,30.00,5,0,0,0.01
2013-7-8,87.9,76.5,68.9,76.9,72.5,68.3,99,89,67,30.12,30.02,4,0,0,0.09
2013-7-9,90.1,77.6,69.0,79.2,74.4,67.4,99,90,65,30.10,29.97,10,0,30,1.89
2013-7-10,88.7,75.7,69.7,78.6,73.4,69.1,99,93,67,30.03,29.87,5,0,0,0.85
2013-7-11,81.0,74.6,70.6,75.9,72.7,70.2,99,94,82,29.90,29.80,4,0,0,0.00
2013-7-12,86.3,75.0,67.9,77.6,71.6,63.5,99,90,69,29.89,29.77,6,0,12,0.03
2013-7-13,77.2,71.9,68.5,73.5,70.4,67.6,99,95,86,29.99,29.86,3,0,0,0.27
2013-7-14,78.1,73.3,69.5,76.3,72.5,68.9,99,97,90,30.15,29.98,4,0,0,0.19
2013-7-15,77.9,71.0,68.9,74.4,70.3,68.3,99,98,87,30.21,30.13,3,0,0,0.04
2013-7-16,91.1,76.8,67.7,76.8,71.9,67.1,99,87,56,30.24,30.15,5,0,0,0.00
2013-7-17,93.1,76.1,67.4,79.2,72.1,66.8,100,89,57,30.19,30.03,5,0,0,1.69
2013-7-18,89.8,76.8,67.5,79.1,72.3,67.2,100,87,62,30.14,29.97,2,0,0,0.01
2013-7-19,92.4,78.8,69.5,78.4,73.5,68.9,99,85,57,30.04,29.90,3,0,0,0.08
2013-7-20,89.1,76.1,72.0,78.8,73.3,71.2,98,92,67,29.97,29.86,5,0,0,0.02
2013-7-21,88.3,76.7,70.8,77.1,73.1,70.2,99,90,66,29.96,29.84,7,0,0,0.04
2013-7-22,86.6,76.0,70.8,78.2,73.0,70.2,99,91,67,29.94,29.80,4,0,0,0.40
2013-7-23,87.0,76.7,69.3,76.9,72.3,68.9,99,87,67,29.87,29.73,7,0,0,0.01
2013-7-24,90.3,78.3,70.8,78.1,72.4,69.2,96,83,63,29.78,29.69,5,0,0,0.00
2013-7-25,91.8,77.0,67.4,77.5,71.7,66.5,98,85,53,29.91,29.73,5,0,0,0.00
2013-7-26,85.4,75.1,68.4,77.4,71.8,67.2,97,90,73,29.99,29.89,3,0,0,0.01
2013-7-27,82.9,74.7,68.6,75.0,71.5,67.7,98,90,73,29.92,29.82,5,0,0,0.00
2013-7-28,89.9,75.7,65.8,76.3,70.6,65.2,99,86,58,29.94,29.84,4,0,0,0.08
2013-7-29,89.5,75.7,67.4,74.8,69.5,63.8,99,83,46,30.07,29.93,5,0,0,0.01
2013-7-30,90.8,74.5,60.9,74.6,67.7,60.1,99,82,51,30.12,30.02,2,0,0,0.00
2013-7-31,76.7,73.0,70.2,74.1,71.2,69.0,99,94,86,30.07,29.89,4,0,0,0.04
2013-8-1,90.2,77.7,71.5,76.6,73.2,70.8,99,87,62,29.93,29.80,4,0,0,0.06
2013-8-2,88.6,77.1,68.8,77.4,72.7,68.0,99,87,62,29.95,29.83,2,0,0,0.00
2013-8-3,87.8,77.4,68.0,75.6,71.1,67.4,99,83,58,29.96,29.89,6,0,0,0.00
2013-8-4,92.4,79.8,72.3,77.9,73.3,71.1,98,82,56,29.93,29.83,4,0,0,0.00
2013-8-5,90.1,77.1,70.6,78.3,73.0,69.8,98,88,62,29.97,29.87,1,0,0,0.42
2013-8-6,85.0,77.2,72.6,78.1,74.1,71.0,98,91,74,29.95,29.86,2,0,0,0.00
2013-8-7,80.2,74.1,70.0,76.3,72.7,69.0,99,95,85,29.98,29.91,5,0,0,1.16
2013-8-8,88.5,77.3,70.9,79.1,74.1,70.2,99,91,66,29.99,29.92,3,0,0,0.00
2013-8-9,90.7,79.7,70.3,78.4,74.3,69.7,99,85,60,30.01,29.92,6,0,0,0.00
2013-8-10,89.3,77.3,71.9,80.5,74.2,71.0,99,91,68,30.04,29.97,6,0,0,0.24
2013-8-11,91.9,78.9,68.8,78.8,73.2,68.2,99,84,56,30.08,29.97,0,0,0,0.00
2013-8-12,90.8,77.8,69.0,80.9,73.9,68.2,99,88,59,30.02,29.89,2,0,0,0.10
2013-8-13,88.7,77.7,69.5,77.1,72.8,68.9,99,86,62,29.93,29.78,0,0,0,0.00
2013-8-14,79.0,73.9,69.5,73.5,70.8,66.6,98,90,75,29.94,29.79,0,0,0,0.00
2013-8-15,74.8,68.8,66.1,68.0,64.7,61.3,95,87,69,30.02,29.93,1,0,0,0.00
2013-8-16,66.1,63.5,61.1,64.9,62.1,60.1,99,96,86,30.07,29.98,5,0,0,0.78
2013-8-17,66.1,63.2,60.2,65.8,62.7,59.6,99,98,96,30.09,30.02,5,0,0,0.32
2013-8-18,78.3,70.3,65.7,74.2,69.0,65.4,99,96,83,30.14,30.03,0,0,0,0.33
2013-8-19,77.0,71.0,68.4,73.8,70.3,68.1,99,98,88,30.10,29.99,1,0,0,0.52
2013-8-20,83.3,73.8,68.7,76.3,71.8,68.3,99,94,78,30.10,30.01,0,0,0,0.00
2013-8-21,86.3,73.9,67.1,77.3,71.5,66.7,100,93,71,30.16,30.04,0,0,0,0.81
2013-8-22,88.9,77.0,68.0,78.3,71.7,67.7,99,85,60,30.09,29.95,0,0,0,0.00
2013-8-23,92.8,78.2,67.8,77.6,72.1,67.2,99,84,52,29.99,29.88,0,0,0,0.00
2013-8-24,80.4,73.0,66.9,73.1,69.0,65.7,98,88,70,30.17,29.96,0,0,0,0.01
2013-8-25,82.6,70.5,61.2,69.3,64.6,60.3,98,83,53,30.29,30.17,0,0,0,0.00
2013-8-26,81.1,65.2,57.1,67.3,61.5,56.3,99,89,56,30.24,30.07,0,0,0,0.00
2013-8-27,89.4,72.6,59.6,73.9,66.4,58.7,99,83,52,30.10,29.94,0,0,0,0.00
2013-8-28,91.9,76.2,62.7,76.5,69.9,61.8,99,83,53,29.97,29.87,0,0,0,0.00
2013-8-29,94.3,79.8,68.6,79.2,73.9,67.9,99,84,56,29.90,29.80,0,0,0,0.00
2013-8-30,84.6,76.9,72.3,77.3,73.8,71.4,98,91,75,29.95,29.84,0,0,0,0.00
2013-8-31,91.2,77.0,68.7,78.3,72.9,68.1,99,88,60,29.90,29.78,0,0,0,0.23
2013-9-1,89.4,74.4,69.7,79.1,72.3,69.1,100,94,62,29.85,29.77,3,0,0,0.06
2013-9-2,87.2,75.4,68.3,75.8,71.7,67.8,99,89,63,29.87,29.77,0,0,0,0.00
2013-9-3,92.3,78.1,69.4,77.8,72.5,68.5,98,85,54,29.89,29.77,0,0,0,0.00
2013-9-4,90.8,76.0,65.3,75.4,70.2,64.6,99,84,49,30.00,29.86,0,0,0,0.00
2013-9-5,90.5,76.1,65.3,77.7,71.0,64.7,99,86,56,30.04,29.96,0,0,0,0.00
2013-9-6,87.8,74.1,65.4,71.6,68.0,64.5,98,83,54,30.08,29.97,0,0,0,0.00
2013-9-7,89.4,72.9,62.0,71.7,66.7,61.1,99,83,50,30.05,29.92,0,0,0,0.00
2013-9-8,92.2,75.1,62.1,74.6,68.6,61.2,99,83,50,29.94,29.84,0,0,0,0.00
2013-9-9,90.3,76.7,68.3,74.1,70.0,67.4,98,82,51,30.03,29.90,0,0,0,0.00
2013-9-10,88.6,75.0,66.0,74.4,69.4,65.1,99,85,56,30.16,30.03,0,0,0,0.00
2013-9-11,90.0,75.1,64.0,72.7,67.6,63.1,99,80,46,30.14,30.01,0,0,0,0.00
2013-9-12,91.5,74.5,63.7,73.5,68.3,62.8,98,83,50,30.02,29.81,0,0,0,0.00
2013-9-13,90.6,76.4,65.0,71.1,66.1,57.7,97,74,36,29.83,29.70,0,0,0,0.00
2013-9-14,83.2,67.9,57.4,64.5,59.4,53.5,95,76,49,30.00,29.80,0,0,0,0.00
2013-9-15,85.4,71.1,60.0,73.7,65.9,58.8,97,85,57,30.10,30.00,0,0,0,0.00
2013-9-16,89.2,74.9,65.8,74.3,68.5,64.9,98,83,50,30.06,29.95,0,0,0,0.00
2013-9-17,76.7,69.9,65.8,65.5,63.5,61.5,96,81,62,30.18,30.02,0,0,0,0.00
2013-9-18,81.5,68.9,61.2,64.1,61.3,58.8,94,78,52,30.18,30.07,0,0,0,0.00
2013-9-19,86.2,68.9,57.0,67.8,61.9,55.9,99,81,48,30.12,30.00,0,0,0,0.00
2013-9-20,86.5,71.5,58.6,69.4,64.2,57.5,99,80,51,30.01,29.84,0,0,0,0.00
2013-9-21,75.2,68.2,63.5,71.7,66.8,62.3,98,95,86,29.86,29.62,3,0,0,1.00
2013-9-22,82.0,67.7,58.9,68.6,63.6,58.3,100,88,54,29.81,29.67,0,0,0,0.01
2013-9-23,81.6,66.9,58.1,66.1,61.1,57.5,98,84,54,29.96,29.81,0,0,0,0.00
2013-9-24,70.0,65.3,62.2,66.1,63.3,60.3,98,93,84,29.98,29.84,0,0,0,0.50
2013-9-25,64.8,63.3,61.2,64.2,62.8,60.7,99,98,98,29.84,29.76,0,0,0,0.37
2013-9-26,76.9,65.8,59.5,66.8,62.4,59.2,100,90,65,29.95,29.81,0,0,0,0.00
2013-9-27,78.0,63.7,53.5,63.0,58.5,52.9,99,85,55,30.08,29.95,0,0,0,0.01
2013-9-28,74.3,62.0,53.7,60.9,56.8,52.9,100,85,56,30.17,30.06,0,0,0,0.00
2013-9-29,74.0,61.5,53.0,63.0,57.0,52.2,98,86,62,30.10,29.97,0,0,0,0.00
2013-9-30,77.5,62.6,51.6,64.2,57.2,50.8,99,85,53,30.04,29.93,0,0,0,0.00
2013-10-1,83.1,64.9,51.5,64.5,58.1,50.7,99,82,46,30.10,29.99,0,0,0,0.00
2013-10-2,84.8,67.2,54.0,68.0,60.8,53.1,99,82,47,30.10,30.00,0,0,0,0.00
2013-10-3,84.7,68.5,56.2,67.2,61.8,55.3,99,82,48,30.08,29.99,0,0,0,0.00
2013-10-4,87.7,68.7,56.4,69.7,62.7,55.6,99,84,46,30.09,30.01,0,0,0,0.00
2013-10-5,87.9,69.9,57.3,70.3,63.8,56.5,99,83,49,30.07,29.94,0,0,0,0.00
2013-10-6,84.0,70.2,58.2,70.2,64.4,57.4,99,84,54,29.97,29.80,0,0,0,0.42
2013-10-7,78.8,69.7,62.0,70.3,66.8,59.9,99,91,71,29.87,29.74,0,0,0,0.02
2013-10-8,70.2,63.1,58.7,61.7,56.6,52.4,95,80,66,30.09,29.86,0,0,0,0.00
2013-10-9,76.7,62.2,53.1,57.3,52.9,48.0,94,74,44,30.15,30.04,0,0,0,0.00
2013-10-10,81.3,62.1,47.9,61.8,54.6,46.8,98,80,42,30.07,29.92,0,0,0,0.00
2013-10-11,83.3,64.2,50.0,63.2,56.8,48.9,99,80,42,29.98,29.87,0,0,0,0.00
2013-10-12,82.8,65.0,52.2,68.1,58.1,51.1,99,82,45,30.02,29.90,0,0,0,0.00
2013-10-13,78.4,65.8,56.4,67.4,61.9,55.6,99,88,65,30.12,30.00,0,0,0,0.00
2013-10-14,72.4,65.8,61.6,64.7,62.6,60.4,97,90,75,30.14,30.05,0,0,0,0.00
2013-10-15,67.2,62.6,57.9,61.9,60.0,56.8,97,91,80,30.09,29.98,0,0,0,0.00
2013-10-16,76.7,63.3,53.7,64.2,58.7,52.9,99,87,55,30.01,29.90,0,0,0,0.00
2013-10-17,72.6,65.6,60.8,68.8,64.1,59.8,98,95,85,29.92,29.82,0,0,0,0.08
2013-10-18,75.1,63.7,56.0,66.2,59.8,55.4,98,89,61,29.95,29.84,0,0,0,0.00
2013-10-19,63.7,58.5,52.6,58.1,56.0,51.5,98,92,75,29.92,29.85,0,0,0,0.02
2013-10-20,74.1,55.2,43.9,53.7,47.6,42.0,99,80,33,30.01,29.90,0,0,0,0.00
2013-10-21,70.8,54.8,42.3,61.3,51.5,41.2,98,90,64,30.09,29.96,0,0,0,0.00
2013-10-22,69.6,60.4,53.7,61.5,57.4,52.7,99,90,66,29.98,29.78,0,0,0,0.01
2013-10-23,64.7,54.2,41.8,52.9,44.7,36.4,98,74,40,30.02,29.76,0,0,0,0.00
2013-10-24,67.7,49.2,34.9,44.1,38.4,33.6,97,71,35,30.15,30.02,0,0,0,0.00
2013-10-25,60.4,45.9,37.1,42.3,36.8,30.5,91,73,35,30.30,30.13,0,0,0,0.00
2013-10-26,61.5,43.9,31.2,42.9,35.8,29.5,95,76,41,30.30,30.10,0,0,0,0.00
2013-10-27,72.1,52.8,36.6,56.2,46.3,35.6,98,81,53,30.12,30.03,0,0,0,0.00
2013-10-28,65.2,56.7,50.4,59.1,54.5,49.6,99,93,75,30.22,30.07,0,0,0,0.01
2013-10-29,71.6,57.9,47.1,61.0,53.7,46.3,99,87,60,30.29,30.18,0,0,0,0.00
2013-10-30,78.3,59.5,51.7,60.4,54.8,50.9,98,87,51,30.25,30.11,0,0,0,0.00
2013-10-31,74.8,64.4,52.7,64.9,59.0,51.6,98,84,69,30.12,29.83,0,0,0,0.00
2013-11-1,70.6,65.2,58.6,66.4,62.1,57.3,97,90,71,29.83,29.64,0,0,0,0.38
2013-11-2,70.2,56.4,43.9,57.3,47.8,42.1,99,77,38,29.97,29.71,0,0,0,0.00
2013-11-3,66.8,50.5,40.0,45.2,41.7,38.4,95,75,38,30.27,29.97,0,0,0,0.00
2013-11-4,63.1,48.0,38.6,43.7,39.5,37.4,98,76,42,30.42,30.27,0,0,0,0.00
2013-11-5,64.6,49.7,40.1,48.0,40.4,35.7,91,73,43,30.44,30.30,0,0,0,0.00
2013-11-6,73.5,58.4,49.6,58.9,52.8,47.6,96,83,59,30.32,30.05,0,0,0,0.00
2013-11-7,73.0,56.2,44.7,62.2,47.6,35.9,99,77,28,30.11,29.94,0,0,0,0.00
2013-11-8,63.8,45.3,31.7,38.2,33.5,25.5,97,69,25,30.28,30.10,0,0,0,0.00
2013-11-9,61.5,45.9,31.9,42.6,35.9,29.7,97,73,31,30.33,30.17,0,0,0,0.00
2013-11-10,75.3,53.2,41.4,46.5,42.4,39.3,96,72,30,30.21,30.09,0,0,0,0.00
2013-11-11,65.6,47.7,36.9,40.0,36.7,31.7,95,71,31,30.28,30.13,0,0,0,0.00
2013-11-12,68.8,47.1,33.1,45.0,35.2,20.1,98,67,39,30.39,30.02,0,0,0,0.00
2013-11-13,52.2,35.2,22.5,23.3,18.4,10.6,88,56,20,30.53,30.39,0,0,0,0.00
2013-11-14,60.1,37.3,20.7,29.0,22.7,18.8,95,64,20,30.48,30.29,0,0,0,0.00
2013-11-15,57.1,46.9,30.6,48.9,40.0,26.9,97,78,60,30.29,30.11,0,0,0,0.08
2013-11-16,63.9,54.9,48.8,58.8,53.2,47.9,98,94,83,30.20,30.09,0,0,0,0.00
2013-11-17,67.4,61.9,57.2,67.1,60.6,55.6,99,96,92,30.11,29.86,0,0,0,0.04
2013-11-18,77.4,65.4,49.1,68.0,52.2,35.1,100,68,31,29.94,29.80,0,0,0,0.18
2013-11-19,61.5,47.1,33.8,38.7,34.4,30.8,96,65,32,30.16,29.92,0,0,0,0.00
2013-11-20,55.2,46.3,34.4,37.2,33.6,30.2,89,63,43,30.31,30.14,0,0,0,0.00
2013-11-21,54.1,50.3,46.3,48.0,43.2,36.8,92,77,59,30.38,30.29,0,0,0,0.00
2013-11-22,67.7,57.1,49.9,59.5,53.8,47.8,95,89,74,30.32,30.10,0,0,0,0.04
2013-11-23,66.5,57.6,44.0,58.6,50.0,27.3,98,78,42,30.14,30.00,2,0,0,0.05
2013-11-24,48.9,37.9,28.4,32.5,23.8,14.3,91,60,26,30.44,30.13,0,0,0,0.00
2013-11-25,45.6,36.8,27.0,23.9,19.8,12.7,81,52,29,30.49,30.21,0,0,0,0.00
2013-11-26,47.1,39.0,33.8,46.8,36.7,23.4,99,92,51,30.21,29.58,0,0,0,1.13
2013-11-27,47.6,39.6,28.3,47.1,33.0,20.1,99,78,53,30.20,29.53,4,0,0,0.17
2013-11-28,51.0,32.7,19.7,28.6,23.2,18.0,95,71,34,30.45,30.20,0,0,0,0.00
2013-11-29,60.1,37.6,22.1,33.1,26.9,20.6,96,72,25,30.49,30.40,0,0,0,0.00
2013-11-30,52.4,40.1,31.5,32.9,28.5,24.7,92,66,34,30.54,30.31,0,0,0,0.00
2013-12-1,56.2,44.2,37.5,42.6,36.1,29.9,93,74,52,30.32,29.97,0,0,0,0.00
2013-12-2,56.5,46.4,37.2,51.0,44.5,35.9,98,93,80,29.97,29.78,0,0,0,0.10
2013-12-3,56.4,53.3,49.4,55.8,52.6,48.9,99,97,94,29.87,29.79,0,0,0,0.64
2013-12-4,69.5,60.6,55.7,65.0,59.5,55.3,99,96,84,29.99,29.85,0,0,0,0.15
2013-12-5,70.5,65.8,62.3,68.6,65.0,61.7,99,97,93,30.03,29.93,1,0,0,0.01
2013-12-6,75.6,70.3,63.5,67.6,65.7,61.6,95,86,70,30.00,29.91,0,0,0,0.04
2013-12-7,63.3,54.5,48.2,61.6,52.3,46.5,97,92,83,30.26,29.96,0,0,0,0.15
2013-12-8,48.9,43.4,39.3,46.7,42.5,38.8,98,97,91,30.28,30.18,1,0,0,0.09
2013-12-9,46.9,42.1,38.3,46.6,41.7,37.8,100,99,98,30.21,29.98,0,0,0,0.25
2013-12-10,53.9,47.2,32.8,50.8,40.8,27.8,99,80,50,30.28,29.89,6,0,0,0.10
2013-12-11,54.7,38.2,24.9,36.6,29.8,23.7,97,75,41,30.41,30.27,0,0,0,0.00
2013-12-12,54.6,37.4,27.8,32.5,25.5,15.6,95,69,22,30.36,30.28,0,0,0,0.00
2013-12-13,57.5,38.5,22.6,37.4,27.9,21.1,95,70,28,30.33,30.15,0,0,0,0.00
2013-12-14,53.9,45.9,42.0,53.1,43.3,34.6,98,91,72,30.16,29.77,1,0,0,0.74
2013-12-15,51.3,43.8,33.4,48.2,38.5,29.7,99,82,59,30.11,29.74,1,0,0,0.05
2013-12-16,59.2,40.5,28.9,35.5,29.9,25.7,94,70,30,30.20,30.10,0,0,0,0.00
2013-12-17,62.7,44.7,27.8,37.4,32.5,26.6,97,67,35,30.17,30.02,0,0,0,0.00
2013-12-18,57.1,42.8,30.0,36.8,24.2,14.0,83,53,19,30.26,30.08,0,0,0,0.00
2013-12-19,62.1,41.0,25.6,33.6,27.1,20.3,94,65,20,30.31,30.18,0,0,0,0.00
2013-12-20,57.9,44.7,31.8,51.4,41.3,30.2,95,88,78,30.21,30.10,0,0,0,0.00
2013-12-21,72.0,60.6,48.3,65.6,57.5,46.8,96,90,78,30.10,29.90,0,0,0,0.00
2013-12-22,70.8,64.3,59.5,67.2,62.7,58.9,99,95,84,29.99,29.86,1,0,0,2.29
2013-12-23,60.1,52.7,38.9,59.8,50.8,35.9,99,93,79,30.14,29.93,0,0,0,0.72
2013-12-24,47.4,37.8,27.8,35.8,27.1,18.9,92,68,36,30.36,30.13,0,0,0,0.00
2013-12-25,44.8,34.6,25.9,29.8,22.9,19.2,86,64,38,30.48,30.32,0,0,0,0.00
2013-12-26,58.4,41.7,30.3,33.4,28.4,23.7,91,62,36,30.33,30.20,0,0,0,0.00
2013-12-27,51.8,37.5,28.8,32.4,29.6,26.9,95,76,43,30.43,30.27,0,0,0,0.00
2013-12-28,47.2,37.2,27.6,40.0,33.2,26.4,97,87,54,30.37,30.00,2,0,0,0.92
2013-12-29,57.6,45.9,40.2,49.1,43.2,39.4,98,91,71,30.01,29.80,0,0,0,0.93
2013-12-30,52.8,45.6,35.4,45.2,41.6,34.4,98,86,71,30.13,29.95,0,0,0,0.00
2013-12-31,50.3,42.3,32.2,42.3,33.7,27.0,91,74,42,30.32,30.12,0,0,0,0.00
2014-1-1,48.0,39.8,31.4,41.5,35.3,29.2,95,84,67,30.33,30.10,0,0,0,0.00
2014-1-2,49.9,42.9,27.9,49.4,40.5,15.9,98,91,60,30.11,29.68,11,0,0,0.30